Old Saybrook Weather Center

Moon Phase Calendar



Online Cameras

 


      

Current Conditions in Old Saybrook Center
12/4/2021 1:54:28 PM

44°F
Feels Like 44
Clouds
Humidity
57%
Pressure
30.09"
Wind
2 mph (S)
Dew Point
30°F
UV Index
1/10 (Low)
Visibility
6 mi

Hourly Forecast

Date & Time Sat, Dec 4
1:00 PM
Sat, Dec 4
2:00 PM
Sat, Dec 4
3:00 PM
Sat, Dec 4
4:00 PM
Sat, Dec 4
5:00 PM
Sat, Dec 4
6:00 PM
Sat, Dec 4
7:00 PM
Sat, Dec 4
8:00 PM
Sat, Dec 4
9:00 PM
Sat, Dec 4
10:00 PM
Sat, Dec 4
11:00 PM
Sun, Dec 5
12:00 AM
Sun, Dec 5
1:00 AM
Sun, Dec 5
2:00 AM
Sun, Dec 5
3:00 AM
Sun, Dec 5
4:00 AM
Sun, Dec 5
5:00 AM
Sun, Dec 5
6:00 AM
Sun, Dec 5
7:00 AM
Sun, Dec 5
8:00 AM
Sun, Dec 5
9:00 AM
Sun, Dec 5
10:00 AM
Sun, Dec 5
11:00 AM
Sun, Dec 5
12:00 PM
Sun, Dec 5
1:00 PM
Sun, Dec 5
2:00 PM
Sun, Dec 5
3:00 PM
Sun, Dec 5
4:00 PM
Sun, Dec 5
5:00 PM
Sun, Dec 5
6:00 PM
Sun, Dec 5
7:00 PM
Sun, Dec 5
8:00 PM
Sun, Dec 5
9:00 PM
Sun, Dec 5
10:00 PM
Sun, Dec 5
11:00 PM
Mon, Dec 6
12:00 AM
Mon, Dec 6
1:00 AM
Mon, Dec 6
2:00 AM
Mon, Dec 6
3:00 AM
Mon, Dec 6
4:00 AM
Mon, Dec 6
5:00 AM
Mon, Dec 6
6:00 AM
Mon, Dec 6
7:00 AM
Mon, Dec 6
8:00 AM
Mon, Dec 6
9:00 AM
Mon, Dec 6
10:00 AM
Mon, Dec 6
11:00 AM
Mon, Dec 6
12:00 PM
Condition
Clouds

Clouds

Clouds

Clouds

Clouds

Clouds

Clouds

Clouds

Clouds

Clouds

Clouds

Clouds

Clouds

Clouds

Clouds

Clouds

Clouds

Clouds

Clouds

Clouds

Clouds

Clouds

Clouds

Clouds

Clouds

Clouds

Clouds

Clouds

Clouds

Clouds

Clouds

Clouds

Clouds

Clouds

Clouds

Clouds

Clouds

Clouds

Clouds

Clouds

Clouds

Rain

Rain

Rain

Clouds

Clouds

Clouds

Clouds
Temperature 44°F44°F44°F44°F43°F43°F44°F45°F45°F44°F42°F40°F39°F38°F37°F37°F37°F37°F37°F37°F39°F40°F41°F41°F42°F42°F42°F41°F40°F41°F41°F42°F44°F45°F46°F47°F48°F49°F51°F51°F52°F52°F53°F55°F57°F56°F56°F56°F
Feels Like 39°F39°F39°F38°F38°F37°F37°F38°F38°F36°F34°F32°F31°F30°F30°F31°F31°F31°F31°F33°F35°F36°F38°F39°F42°F42°F42°F39°F36°F36°F36°F36°F37°F38°F39°F40°F42°F44°F49°F50°F51°F52°F53°F55°F56°F56°F55°F56°F
Cloudiness 83%90%84%83%83%84%84%41%49%35%29%39%49%100%100%100%100%100%93%100%98%99%98%98%98%37%32%42%53%62%69%100%100%100%100%100%100%93%96%98%98%98%98%100%100%88%90%74%
Visibility 6 mi6 mi6 mi6 mi6 mi6 mi6 mi6 mi6 mi6 mi6 mi6 mi6 mi6 mi6 mi6 mi6 mi6 mi6 mi6 mi6 mi6 mi6 mi6 mi6 mi6 mi6 mi6 mi6 mi6 mi6 mi6 mi6 mi6 mi6 mi6 mi6 mi6 mi6 mi6 mi6 mi5 mi4 mi6 mi6 mi6 mi6 mi6 mi
Precipitation 0%0%0%0%0%0%0%0%0%0%0%0%0%0%0%0%0%0%0%0%0%0%0%0%0%0%0%0%0%0%0%0%0%0%0%0%0%0%0%0%16%62%93%80%61%46%35%19%
Humidity 58%57%58%61%63%67%71%73%72%69%69%69%66%66%67%65%65%64%64%62%58%54%50%47%46%45%47%52%55%58%60%62%63%64%68%70%73%76%79%83%87%96%96%97%96%97%92%89%
Dew Point 30°F30°F31°F31°F32°F33°F35°F36°F36°F34°F32°F30°F28°F27°F27°F27°F26°F26°F25°F25°F25°F24°F23°F23°F22°F22°F23°F24°F25°F27°F28°F30°F31°F33°F35°F37°F40°F42°F44°F46°F48°F51°F52°F54°F55°F55°F53°F53°F
Pressure 30.09"30.09"30.09"30.09"30.09"30.09"30.09"30.12"30.12"30.15"30.15"30.18"30.18"30.24"30.24"30.27"30.3"30.33"30.36"30.36"30.39"30.42"30.39"30.39"30.36"30.36"30.36"30.39"30.39"30.39"30.39"30.39"30.36"30.36"30.33"30.3"30.27"30.24"30.18"30.12"30.09"30.06"30"29.97"29.91"29.91"29.88"29.85"
Wind Speed 8.8 mph9.2 mph8.4 mph9.8 mph10.3 mph11.9 mph14.4 mph15.8 mph15.8 mph17.3 mph15.8 mph15.1 mph14.5 mph13.2 mph11.4 mph10.1 mph8.9 mph7.8 mph6.8 mph5.7 mph5.3 mph5.4 mph4.6 mph3.8 mph2.6 mph1.4 mph2.4 mph3.5 mph5.7 mph7.4 mph8.8 mph10.4 mph12.3 mph13.6 mph15 mph16.1 mph16 mph15.9 mph14.5 mph15.5 mph15.1 mph13.9 mph14.6 mph16.5 mph16.5 mph16.7 mph16.4 mph17.5 mph
Wind
Direction
243°
WSW
242°
WSW
246°
WSW
246°
WSW
240°
WSW
235°
SW
237°
WSW
247°
WSW
267°
W
285°
WNW
292°
WNW
296°
WNW
293°
WNW
295°
WNW
295°
WNW
296°
WNW
298°
WNW
297°
WNW
304°
NW
305°
NW
306°
NW
311°
NW
310°
NW
308°
NW
292°
WNW
243°
WSW
179°
S
152°
SSE
139°
SE
136°
SE
132°
SE
129°
SE
133°
SE
140°
SE
146°
SE
151°
SSE
155°
SSE
158°
SSE
149°
SSE
145°
SE
141°
SE
140°
SE
140°
SE
159°
SSE
188°
S
214°
SW
223°
SW
214°
SW

Daily Forecast

Date High Low Precip. Humidity
Today
Dec 4

Clouds
45 °F
34 °F
0%
56%
Sunday
Dec 5

Clouds
46 °F
37 °F
0%
50%
Monday
Dec 6

Rain
57 °F
45 °F
100%
97%
Tuesday
Dec 7

Rain
41 °F
35 °F
100%
53%
Wednesday
Dec 8

Snow
38 °F
35 °F
100%
93%
Thursday
Dec 9

Snow
37 °F
29 °F
80%
83%
Friday
Dec 10

Snow
45 °F
32 °F
85%
91%
Saturday
Dec 11

Rain
53 °F
47 °F
100%
100%
Sunday
Dec 12

Snow
43 °F
35 °F
100%
99%
Monday
Dec 13

Clear
37 °F
29 °F
46%
67%
Tuesday
Dec 14

Clouds
42 °F
36 °F
0%
64%
Wednesday
Dec 15

Clouds
47 °F
42 °F
0%
85%
Thursday
Dec 16

Clouds
54 °F
45 °F
0%
92%
Friday
Dec 17

Rain
57 °F
53 °F
100%
91%
Saturday
Dec 18

Rain
56 °F
40 °F
100%
69%
Sunday
Dec 19

Rain
45 °F
39 °F
57%
71%

Temperature 8-14 Day Outlook



Precipitation 8-14 Day Outlook




Quick Links
Old Saybrook News
Old Saybrook Photos
Old Saybrook Videos




About Us
Contact Us
Site Map
Search Site
Advertise With Us
   
OldSaybrook.USCoast.info
THE OLD SAYBROOK WEBSITE

Copyright 2021, Coastal Town
Privacy    |    Legal